Location: Asheville, NC
(35.6000°N, 82.5500°W)
Time: 13:25:01
(UTC-05:00)

KAITUO 1B - Pass Details

Date: 18 February 2018
Orbit: 499 x 522 km, 97.5° (Epoch: 21 February)

Event Time Altitude Azimuth Distance (km) Brightness Sun altitude
Rises 18:54:35 0° 201° (SSW) 2,581 ? -8.7°
Reaches altitude 10° 18:57:10 10° 221° (SW) 1,699 ? -9.2°
Maximum altitude 18:59:43 18° 265° (W) 1,283 ? -9.7°
Drops below altitude 10° 19:02:17 10° 310° (NW) 1,704 ? -10.3°
Sets 19:04:53 0° 330° (NNW) 2,591 ? -10.8°
